Location: Peebles
(55.6412°N, 3.1714°W)
Time: 05:26:30
(UTC+01:00)

deb Agena D - Pass Details

Date: 07 July 2022
Orbit: 797 x 980 km, 99.8° (Epoch: 16 August)

Event Time Altitude Azimuth Distance (km) Brightness Sun altitude
Rises 00:04:45 0° 15° (NNE) 3,390 10.4 -10.2°
Reaches altitude 10° 00:07:13 10° 7° (N) 2,476 9.8 -10.3°
Maximum altitude 00:12:10 36° 303° (WNW) 1,350 7.8 -10.5°
Drops below altitude 10° 00:17:18 10° 239° (WSW) 2,571 8.6 -10.7°
Sets 00:19:55 0° 231° (SW) 3,538 9.2 -10.8°
